Weaverville, CA

10:20 AM PDT on April 28, 2017 (GMT -0700)
Weaverville

Weather History for KO54 - November, 2012

Change the Weather History Date:

Sunday, November 18, 2012

  Actual Average (KRDD) Record (KRDD)
Temperature  
Mean Temperature 36 °F -  
Max Temperature 41 °F 58 °F 77 °F (2005)
Min Temperature 32 °F 40 °F 27 °F (2000)
Degree Days  
Heating Degree Days 28    
Moisture  
Dew Point 36 °F    
Average Humidity 92    
Maximum Humidity 100    
Minimum Humidity 87    
Precipitation  
Precipitation 0.06 in - - ()
Sea Level Pressure  
Sea Level Pressure 30.06 in    
Wind  
Wind Speed 1 mph (NE)    
Max Wind Speed 6 mph    
Max Gust Speed -    
Visibility 8 miles    
Events      
Averages and records for this station are not official NWS values.
T = Trace of Precipitation, MM = Missing Value Source: NWS Daily Summary

Daily Weather History Graph

Daily Weather History Graph

Search for Another Location

Airport or City:

Trip Planner

Search our weather history database for the weather conditions in past years. The results will help you decide how hot, cold, wet, or windy it might be!

Date:

Astronomy

Nov. 18, 2012 Rise Set
Actual Time 7:02 AM PST 4:50 PM PST
Civil Twilight 6:33 AM PST 5:20 PM PST
Nautical Twilight 5:59 AM PST 5:53 PM PST
Astronomical Twilight 5:27 AM PST 6:26 PM PST
Moon 11:32 AM PST (11/18) 10:17 PM PST (11/18)
Length of Visible Light 10h 47m
Length of Day
9h 48m
Waxing Crescent, 31% of the Moon is Illuminated
Nov 18
Waxing Crescent
Nov 20
First Quarter
Nov 28
Full
Dec 6
Last Quarter
Dec 13
New

Hourly Weather History & Observations

Time (PST) Temp. Windchill Dew Point Humidity Pressure Visibility Wind Dir Wind Speed Gust Speed Precip Events Conditions
12:15 AM 32.0 °F - 32.0 °F 100% 29.99 in 9.0 mi Calm Calm - N/A   Unknown
12:35 AM 33.8 °F - 32.0 °F 93% 30.00 in 9.0 mi Calm Calm - N/A   Unknown
12:55 AM 35.6 °F - 33.8 °F 93% 30.00 in 10.0 mi Calm Calm - N/A   Unknown
1:15 AM 35.6 °F 32.8 °F 33.8 °F 93% 30.01 in 9.0 mi North 3.5 mph - N/A   Unknown
1:35 AM 35.6 °F - 33.8 °F 93% 30.01 in 8.0 mi Calm Calm - N/A   Unknown
1:55 AM 35.6 °F - 33.8 °F 93% 30.01 in 3.0 mi Calm Calm - N/A   Unknown
2:15 AM 35.6 °F - 35.6 °F 100% 30.01 in 5.0 mi Calm Calm - N/A   Unknown
2:35 AM 35.6 °F - 33.8 °F 93% 30.01 in 7.0 mi Calm Calm - N/A   Unknown
2:55 AM 35.6 °F - 33.8 °F 93% 30.01 in 9.0 mi Calm Calm - N/A   Unknown
3:15 AM 35.6 °F - 33.8 °F 93% 30.01 in 8.0 mi Calm Calm - N/A   Unknown
3:35 AM 35.6 °F 32.8 °F 33.8 °F 93% 30.01 in 7.0 mi SSW 3.5 mph - N/A   Unknown
3:55 AM 35.6 °F 31.7 °F 33.8 °F 93% 30.02 in 10.0 mi SSW 4.6 mph - N/A   Unknown
4:15 AM 35.6 °F - 33.8 °F 93% 30.02 in 10.0 mi Calm Calm - N/A   Unknown
4:35 AM 35.6 °F - 33.8 °F 93% 30.03 in 10.0 mi Calm Calm - N/A   Unknown
4:55 AM 35.6 °F - 32.0 °F 87% 30.03 in 10.0 mi Calm Calm - N/A   Unknown
5:15 AM 35.6 °F 32.8 °F 33.8 °F 93% 30.02 in 7.0 mi SW 3.5 mph - N/A   Unknown
5:35 AM 35.6 °F 31.7 °F 33.8 °F 93% 30.01 in 9.0 mi SW 4.6 mph - N/A   Unknown
5:55 AM 35.6 °F - 33.8 °F 93% 30.02 in 10.0 mi Calm Calm - N/A   Unknown
6:15 AM 35.6 °F - 33.8 °F 93% 30.04 in 10.0 mi Calm Calm - N/A   Unknown
6:35 AM 35.6 °F - 33.8 °F 93% 30.04 in 10.0 mi Calm Calm - N/A   Unknown
6:55 AM 35.6 °F - 33.8 °F 93% 30.04 in 10.0 mi Calm Calm - N/A   Unknown
7:15 AM 35.6 °F - 33.8 °F 93% 30.05 in 10.0 mi Calm Calm - N/A   Unknown
7:35 AM 35.6 °F - 33.8 °F 93% 30.04 in 10.0 mi Calm Calm - N/A   Unknown
7:55 AM 35.6 °F 32.8 °F 33.8 °F 93% 30.05 in 10.0 mi SSW 3.5 mph - N/A   Unknown
8:15 AM 35.6 °F - 32.0 °F 87% 30.06 in 10.0 mi Calm Calm - N/A   Unknown
8:35 AM 35.6 °F 32.8 °F 32.0 °F 87% 30.06 in 10.0 mi WSW 3.5 mph - N/A   Unknown
8:55 AM 35.6 °F - 32.0 °F 87% 30.06 in 10.0 mi Calm Calm - N/A   Unknown
9:15 AM 35.6 °F - 33.8 °F 93% 30.06 in 10.0 mi Calm Calm - N/A   Unknown
9:35 AM 35.6 °F - 33.8 °F 93% 30.07 in 10.0 mi Calm Calm - N/A   Unknown
9:55 AM 37.4 °F - 33.8 °F 87% 30.07 in 10.0 mi Calm Calm - N/A   Unknown
10:15 AM 37.4 °F - 33.8 °F 87% 30.07 in 10.0 mi Calm Calm - N/A   Unknown
10:35 AM 37.4 °F - 33.8 °F 87% 30.07 in 10.0 mi Calm Calm - N/A   Unknown
10:55 AM 37.4 °F - 35.6 °F 93% 30.07 in 10.0 mi Calm Calm - N/A   Unknown
11:15 AM 39.2 °F - 35.6 °F 87% 30.08 in 10.0 mi Calm Calm - N/A   Unknown
11:35 AM 39.2 °F - 35.6 °F 87% 30.08 in 10.0 mi Calm Calm - N/A   Unknown
11:55 AM 39.2 °F - 35.6 °F 87% 30.07 in 10.0 mi Calm Calm - N/A   Unknown
12:15 PM 39.2 °F - 35.6 °F 87% 30.07 in 10.0 mi Calm Calm - N/A   Unknown
12:35 PM 39.2 °F - 35.6 °F 87% 30.07 in 10.0 mi Calm Calm - N/A   Unknown
12:55 PM 39.2 °F - 35.6 °F 87% 30.07 in 10.0 mi Calm Calm - N/A   Unknown
1:15 PM 41.0 °F - 37.4 °F 87% 30.07 in 10.0 mi Calm Calm - N/A   Unknown
1:35 PM 41.0 °F - 37.4 °F 87% 30.06 in 10.0 mi Calm Calm - N/A   Unknown
1:55 PM 41.0 °F - 37.4 °F 87% 30.06 in 10.0 mi Calm Calm - N/A   Unknown
2:15 PM 41.0 °F - 37.4 °F 87% 30.06 in 10.0 mi Calm Calm - N/A   Unknown
2:35 PM 41.0 °F - 37.4 °F 87% 30.06 in 10.0 mi Calm Calm - N/A   Unknown
2:55 PM 41.0 °F - 37.4 °F 87% 30.07 in 9.0 mi Calm Calm - N/A   Unknown
3:15 PM 41.0 °F - 37.4 °F 87% 30.07 in 4.0 mi Calm Calm - N/A   Unknown
3:35 PM 41.0 °F - 39.2 °F 93% 30.08 in 5.0 mi Calm Calm - 0.01 in   Unknown
3:55 PM 41.0 °F - 39.2 °F 93% 30.08 in 5.0 mi Calm Calm - 0.01 in   Unknown
4:15 PM 41.0 °F 39.0 °F 39.2 °F 93% 30.08 in 10.0 mi NE 3.5 mph - N/A   Unknown
4:35 PM 41.0 °F 38.0 °F 39.2 °F 93% 30.07 in 10.0 mi NE 4.6 mph - N/A   Unknown
4:55 PM 39.2 °F 37.0 °F 37.4 °F 93% 30.07 in 10.0 mi NE 3.5 mph - N/A   Unknown
5:15 PM 39.2 °F - 39.2 °F 100% 30.08 in 10.0 mi Calm Calm - N/A   Unknown
5:35 PM 39.2 °F - 37.4 °F 93% 30.08 in 10.0 mi Calm Calm - N/A   Unknown
5:55 PM 39.2 °F - 39.2 °F 100% 30.09 in 10.0 mi Calm Calm - N/A   Unknown
6:15 PM 39.2 °F - 39.2 °F 100% 30.09 in 10.0 mi Calm Calm - N/A   Unknown
6:35 PM 39.2 °F - 39.2 °F 100% 30.09 in 10.0 mi Calm Calm - N/A   Unknown
6:55 PM 41.0 °F 38.0 °F 39.2 °F 93% 30.10 in 9.0 mi NE 4.6 mph - N/A   Unknown
7:15 PM 39.2 °F 35.9 °F 39.2 °F 100% 30.09 in 9.0 mi NE 4.6 mph - N/A   Unknown
7:35 PM 41.0 °F - 39.2 °F 93% 30.10 in 9.0 mi Calm Calm - N/A   Unknown
7:55 PM 41.0 °F - 39.2 °F 93% 30.10 in 8.0 mi Calm Calm - N/A   Unknown
8:15 PM 41.0 °F - 39.2 °F 93% 30.11 in 5.0 mi Calm Calm - 0.01 in   Unknown
8:35 PM 41.0 °F - 39.2 °F 93% 30.11 in 3.0 mi Calm Calm - 0.01 in   Unknown
8:55 PM 41.0 °F - 39.2 °F 93% 30.11 in 4.0 mi Calm Calm - 0.02 in   Unknown
9:15 PM 41.0 °F - 39.2 °F 93% 30.12 in 8.0 mi Calm Calm - N/A   Unknown
9:35 PM 41.0 °F 39.0 °F 39.2 °F 93% 30.12 in 9.0 mi NNE 3.5 mph - N/A   Unknown
9:55 PM 41.0 °F 39.0 °F 39.2 °F 93% 30.12 in 7.0 mi NE 3.5 mph - N/A   Unknown
10:15 PM 41.0 °F - 39.2 °F 93% 30.12 in 5.0 mi Calm Calm - N/A   Unknown
10:35 PM 41.0 °F - 39.2 °F 93% 30.13 in 3.0 mi Calm Calm - N/A   Unknown
10:55 PM 41.0 °F - 39.2 °F 93% 30.13 in 3.0 mi Calm Calm - 0.01 in   Unknown
11:15 PM 41.0 °F - 39.2 °F 93% 30.13 in 3.0 mi Calm Calm - N/A   Unknown
11:35 PM 41.0 °F 37.1 °F 39.2 °F 93% 30.13 in 4.0 mi NE 5.8 mph - 0.01 in   Unknown
11:55 PM 41.0 °F - 39.2 °F 93% 30.14 in 5.0 mi Calm Calm - 0.02 in   Unknown